Back to catalog

NOZOMI

PLANET-B

AliveScienceHEO
NORAD 25383·PAYLOAD·🇯🇵 Japan

Launched Jul 3, 1998 from Uchinoura Space Center

Loading…

Next Passes (next 24 hours)

TLE

StaleSource: Space-Track

Epoch: Aug 14, 1998, 23:48 UTC

1 25383U 98041A   98226.99187500 +.00003099 +00000-0 +00000-0 0  9990
2 25383 027.3010 240.9300 9718370 156.3990 359.9900 00.06886564000044

Track NOZOMI in real time with AllMySat

Download on the App Store